Portland, ME

8:22 AM EST on December 15, 2019 (GMT -0500)
Portland International

Weather History for KPWM - October, 2019

Change the Weather History Date:

Sunday, October 13, 2019

  Actual Average Record
Temperature  
Mean Temperature 56 °F 50 °F  
Max Temperature 64 °F 60 °F 84 °F (1954)
Min Temperature 48 °F 40 °F 26 °F (1957)
Degree Days  
Heating Degree Days 8 15  
Month to date heating degree days 144 172  
Since 1 July heating degree days 306 393  
Cooling Degree Days 0 0  
Month to date cooling degree days 0 0  
Year to date cooling degree days 474 358  
Growing Degree Days 6 (Base 50)    
Moisture  
Dew Point 49 °F    
Average Humidity 81    
Maximum Humidity 96    
Minimum Humidity 60    
Precipitation  
Precipitation 0.00 in 0.15 in 1.69 in (1990)
Month to date precipitation 1.04 1.98  
Year to date precipitation 35.77 35.41  
Snow  
Snow 0.00 in 0.00 in T in (1934)
Month to date snowfall 0.0 0.0  
Since 1 July snowfall 0.0 0.0  
Since 1 September snowfall 0.0 0.0  
Snow Depth 0.00 in    
Sea Level Pressure  
Sea Level Pressure 30.01 in    
Wind  
Wind Speed 2 mph ()    
Max Wind Speed 10 mph    
Max Gust Speed 12 mph    
Visibility 10.0 miles    
Events Fog    
T = Trace of Precipitation, MM = Missing Value Source: Averaged Metar Reports

Daily Weather History Graph

Daily Weather History Graph

Search for Another Location

Airport or City:

Astronomy

Oct. 13, 2019 Rise Set
Actual Time 6:52 AM EDT 6:01 PM EDT
Civil Twilight 6:23 AM EDT 6:30 PM EDT
Nautical Twilight 5:50 AM EDT 7:03 PM EDT
Astronomical Twilight 5:17 AM EDT 7:36 PM EDT
Moon 6:24 PM EDT (10/13) 6:20 AM EDT (10/13)
Length of Visible Light 12h 06m
Length of Day
11h 08m
Full, 100% of the Moon is Illuminated
Oct 13
Full
Oct 13
Full
Oct 21
Last Quarter
Oct 27
New
Nov 4
First Quarter

Hourly Weather History & Observations

Time (EDT) Temp. Dew Point Humidity Pressure Visibility Wind Dir Wind Speed Gust Speed Precip Events Conditions
12:06 AM 54.0 °F 50.0 °F 86% 29.95 in 10.0 mi Calm Calm - N/A   Overcast
12:51 AM 54.0 °F 50.0 °F 86% 29.95 in 10.0 mi West 4.6 mph - N/A   Overcast
1:51 AM 54.0 °F 51.1 °F 90% 29.96 in 10.0 mi West 3.5 mph - N/A   Overcast
2:44 AM 54.0 °F 51.1 °F 90% 29.95 in 10.0 mi Calm Calm - N/A   Overcast
2:51 AM 54.0 °F 50.0 °F 86% 29.96 in 10.0 mi Calm Calm - N/A   Overcast
3:51 AM 53.1 °F 50.0 °F 89% 29.96 in 10.0 mi Calm Calm - N/A   Scattered Clouds
4:51 AM 52.0 °F 50.0 °F 93% 29.97 in 10.0 mi WSW 3.5 mph - N/A   Mostly Cloudy
5:51 AM 50.0 °F 48.0 °F 93% 29.99 in 10.0 mi Calm Calm - N/A Fog Shallow Fog
6:51 AM 50.0 °F 48.0 °F 93% 30.00 in 10.0 mi Calm Calm - N/A   Scattered Clouds
7:51 AM 52.0 °F 50.0 °F 93% 30.02 in 10.0 mi Calm Calm - N/A   Mostly Cloudy
9:51 AM 59.0 °F 51.1 °F 75% 30.05 in 10.0 mi Calm Calm - N/A   Mostly Cloudy
10:51 AM 61.0 °F 50.0 °F 67% 30.05 in 10.0 mi Variable 3.5 mph - N/A   Mostly Cloudy
11:51 AM 63.0 °F 50.0 °F 63% 30.05 in 10.0 mi NE 3.5 mph - N/A   Overcast
12:51 PM 64.0 °F 50.0 °F 60% 30.04 in 10.0 mi Variable 4.6 mph - N/A   Overcast
1:51 PM 64.0 °F 50.0 °F 60% 30.04 in 10.0 mi West 4.6 mph - N/A   Overcast
2:51 PM 64.0 °F 51.1 °F 63% 30.03 in 10.0 mi SE 5.8 mph - N/A   Mostly Cloudy
3:51 PM 63.0 °F 50.0 °F 63% 30.02 in 10.0 mi South 6.9 mph - N/A   Mostly Cloudy
4:51 PM 60.1 °F 50.0 °F 69% 30.02 in 10.0 mi SSE 8.1 mph - N/A   Scattered Clouds
5:51 PM 57.9 °F 48.9 °F 72% 30.02 in 10.0 mi Calm Calm - N/A   Scattered Clouds
6:51 PM 55.9 °F 48.9 °F 77% 30.03 in 10.0 mi Calm Calm - N/A   Scattered Clouds
7:51 PM 55.0 °F 48.9 °F 80% 30.04 in 10.0 mi Calm Calm - N/A   Clear
8:51 PM 52.0 °F 48.0 °F 86% 30.04 in 10.0 mi Calm Calm - N/A   Clear
9:51 PM 53.1 °F 48.9 °F 86% 30.04 in 10.0 mi Calm Calm - N/A   Clear
10:51 PM 50.0 °F 48.0 °F 93% 30.05 in 10.0 mi Calm Calm - N/A   Clear
11:25 PM 48.9 °F 46.0 °F 90% 30.04 in 10.0 mi Calm Calm - N/A   Scattered Clouds
11:33 PM 50.0 °F 46.9 °F 89% 30.04 in 10.0 mi Calm Calm - N/A   Mostly Cloudy
11:51 PM 51.1 °F 48.0 °F 89% 30.03 in 10.0 mi Calm Calm - N/A   Overcast